CW7549 Weather Reports


time (UTC)temp
C
wind
direction
speed
KPH
gust
KPH
rain 1hr
cm
rain 24hr
cm
rain mn
cm
humidity
%
barometer
mb
20260507163234 13 132 3.2 8.0 0.00 0.00 0.00 66 1010.7
20260507162235 13 150 1.6 9.7 0.00 0.00 0.00 68 1010.7
20260507161233 13 125 1.6 8.0 0.00 0.00 0.00 69 1010.8
20260507160241 13 140 3.2 8.0 0.00 0.00 0.00 69 1011.0
20260507155240 12 88 3.2 6.4 0.00 0.00 0.00 72 1011.0
20260507154233 12 80 1.6 8.0 0.00 0.00 0.00 73 1011.0
20260507153233 12 122 0.0 4.8 0.00 0.00 0.00 74 1011.1
20260507152245 12 134 0.0 6.4 0.00 0.00 0.00 76 1011.1
20260507151256 12 137 0.0 1.6 0.00 0.00 0.00 76 1011.1
20260507150247 12 137 3.2 8.0 0.00 0.00 0.00 75 1011.2
20260507145244 12 137 0.0 8.0 0.00 0.00 0.00 74 1011.2
20260507144244 12 138 3.2 8.0 0.00 0.00 0.00 73 1011.5
20260507143236 12 97 1.6 9.7 0.00 0.00 0.00 72 1011.6
20260507142236 12 157 1.6 8.0 0.00 0.00 0.00 73 1011.6
20260507141235 12 196 1.6 8.0 0.00 0.00 0.00 71 1011.7
20260507140244 12 136 3.2 9.7 0.00 0.00 0.00 72 1011.8
20260507135245 13 134 3.2 11.3 0.00 0.00 0.00 72 1011.8
20260507134243 13 171 3.2 11.3 0.00 0.00 0.00 73 1011.7
20260507133257 13 100 8.0 16.1 0.00 0.00 0.00 72 1011.8
20260507132247 13 148 3.2 14.5 0.00 0.00 0.00 73 1011.8
20260507131239 13 93 4.8 8.0 0.00 0.00 0.00 73 1012.0
20260507130244 13 170 3.2 9.7 0.00 0.00 0.00 73 1011.9
20260507125311 13 117 1.6 8.0 0.00 0.00 0.00 73 1011.9
20260507124245 13 152 3.2 8.0 0.00 0.00 0.00 72 1012.0
20260507123238 13 128 3.2 9.7 0.00 0.00 0.00 74 1012.1
20260507122257 12 163 1.6 9.7 0.00 0.00 0.00 75 1012.1
20260507121246 12 155 4.8 6.4 0.00 0.00 0.00 75 1012.1
20260507120244 12 155 1.6 8.0 0.00 0.00 0.00 76 1012.2
20260507115245 12 170 1.6 9.7 0.00 0.00 0.00 76 1012.2
20260507114258 12 113 1.6 6.4 0.00 0.00 0.00 76 1012.2
20260507113238 12 112 3.2 11.3 0.00 0.00 0.00 75 1012.2
20260507112236 12 117 3.2 9.7 0.00 0.00 0.00 75 1012.2
20260507111239 12 159 1.6 9.7 0.00 0.00 0.00 74 1012.2
20260507110251 13 165 0.0 6.4 0.00 0.00 0.00 76 1012.2
20260507105243 12 119 4.8 11.3 0.00 0.00 0.00 78 1012.2
20260507104229 12 151 3.2 11.3 0.00 0.00 0.00 78 1012.3
20260507103246 12 134 0.0 6.4 0.00 0.00 0.00 82 1012.3
20260507102237 12 150 3.2 9.7 0.00 0.00 0.00 84 1012.3
20260507101304 11 134 1.6 8.0 0.00 0.00 0.00 87 1012.3
20260507100259 11 135 1.6 6.4 0.00 0.00 0.00 88 1012.2
20260507095237 11 138 3.2 8.0 0.00 0.00 0.00 89 1012.2
20260507093309 10 146 4.8 6.4 0.00 0.00 0.00 89 1012.2
20260507092248 10 147 1.6 9.7 0.00 0.00 0.00 90 1012.2
20260507091300 10 150 1.6 8.0 0.00 0.00 0.00 91 1012.2
20260507090237 10 155 3.2 9.7 0.00 0.00 0.00 91 1012.2
20260507085236 10 162 3.2 6.4 0.00 0.00 0.00 92 1012.2
20260507084248 10 163 4.8 9.7 0.00 0.00 0.00 92 1012.1
20260507083250 10 163 4.8 8.0 0.00 0.00 0.00 92 1012.2
20260507082244 10 165 0.0 8.0 0.00 0.00 0.00 92 1012.2
20260507081232 10 167 1.6 4.8 0.00 0.00 0.00 92 1012.2
20260507080303 10 168 0.0 3.2 0.00 0.00 0.00 92 1012.2
20260507075309 9 167 0.0 1.6 0.00 0.00 0.00 92 1012.2
20260507074238 9 167 0.0 1.6 0.00 0.00 0.00 92 1012.1
20260507073249 9 167 0.0 1.6 0.00 0.00 0.00 92 1012.1
20260507072241 8 167 0.0 0.0 0.00 0.00 0.00 92 1012.1
20260507071239 8 167 0.0 0.0 0.00 0.00 0.00 92 1011.8
20260507070258 8 167 0.0 0.0 0.00 0.00 0.00 92 1011.8
20260507065250 8 167 1.6 4.8 0.00 0.00 0.00 91 1011.8
20260507064241 8 168 0.0 0.0 0.00 0.00 0.00 92 1011.7
20260507063234 8 167 0.0 1.6 0.00 0.00 0.00 91 1011.6
20260507062246 8 167 1.6 3.2 0.00 0.00 0.00 91 1011.6
20260507061236 7 167 0.0 1.6 0.00 0.00 0.00 91 1011.6
20260507060232 7 167 0.0 0.0 0.00 0.00 0.00 91 1011.5
20260507055250 7 167 0.0 0.0 0.00 0.00 0.00 91 1011.5
20260507054234 7 167 0.0 0.0 0.00 0.00 0.00 91 1011.5
20260507053243 7 167 0.0 3.2 0.00 0.00 0.00 91 1011.4
20260507052257 7 167 0.0 4.8 0.00 0.00 0.00 91 1011.4
20260507051246 7 167 1.6 3.2 0.00 0.00 0.00 90 1011.4
20260507050246 6 167 0.0 0.0 0.00 0.00 0.00 90 1011.3
20260507045257 6 167 0.0 0.0 0.00 0.00 0.00 90 1011.3
20260507044250 6 168 0.0 0.0 0.00 0.00 0.00 90 1011.3
20260507043302 6 168 0.0 0.0 0.00 0.00 0.00 90 1011.3
20260507042240 6 168 0.0 1.6 0.00 0.00 0.00 90 1011.3
20260507041232 6 168 0.0 0.0 0.00 0.00 0.00 89 1011.3
20260507040307 6 168 0.0 0.0 0.00 0.00 0.00 89 1011.2
20260507035242 6 168 0.0 0.0 0.00 0.00 0.00 89 1011.2
20260507034239 6 168 0.0 3.2 0.00 0.00 0.00 89 1011.2
20260507033239 6 168 0.0 3.2 0.00 0.00 0.00 88 1011.2
20260507032237 6 168 0.0 0.0 0.00 0.00 0.00 89 1011.2
20260507031300 6 168 0.0 0.0 0.00 0.00 0.00 89 1011.2
20260507030246 6 168 0.0 0.0 0.00 0.00 0.00 88 1011.2
20260507025238 6 168 0.0 0.0 0.00 0.00 0.00 89 1011.2
20260507024240 6 168 0.0 0.0 0.00 0.00 0.00 89 1011.1
20260507023253 6 168 0.0 0.0 0.00 0.00 0.00 88 1011.1
20260507022232 6 168 0.0 0.0 0.00 0.00 0.00 88 1011.1
20260507021240 6 168 0.0 0.0 0.00 0.00 0.00 88 1011.1
20260507020251 6 168 0.0 0.0 0.00 0.00 0.00 88 1011.1
20260507015238 6 168 0.0 0.0 0.00 0.00 0.00 89 1011.1
20260507014241 7 168 0.0 0.0 0.00 0.00 0.00 89 1011.1
20260507013243 6 168 0.0 0.0 0.00 0.00 0.00 89 1011.1
20260507012233 6 168 0.0 3.2 0.00 0.00 0.00 88 1011.1
20260507011246 7 168 0.0 0.0 0.00 0.00 0.00 88 1011.1
20260507010301 7 168 0.0 0.0 0.00 0.00 0.00 88 1011.2
20260507005254 7 168 0.0 0.0 0.00 0.00 0.00 88 1011.2
20260507004233 7 168 0.0 0.0 0.00 0.00 0.00 88 1011.2
20260507003232 7 168 0.0 0.0 0.00 0.00 0.00 88 1011.2
20260507002244 7 168 0.0 0.0 0.00 0.00 0.00 88 1011.2
20260507001237 7 168 0.0 0.0 0.00 0.00 0.00 87 1011.4
20260507000229 7 168 0.0 0.0 0.00 0.00 0.00 87 1011.5
20260506235307 7 168 0.0 0.0 0.00 0.00 0.00 87 1011.5
20260506234235 7 168 0.0 0.0 0.00 0.00 0.00 87 1011.5
20260506233233 7 168 0.0 0.0 0.00 0.00 0.00 87 1011.3
20260506232234 7 168 0.0 0.0 0.00 0.00 0.00 87 1011.3
20260506231235 7 168 0.0 0.0 0.00 0.00 0.00 87 1011.4
20260506230252 7 168 0.0 0.0 0.00 0.00 0.00 87 1011.5
20260506225305 7 168 0.0 0.0 0.00 0.00 0.00 87 1011.5
20260506224248 7 168 0.0 0.0 0.00 0.00 0.00 87 1011.5
20260506223235 7 168 0.0 0.0 0.00 0.00 0.00 86 1011.5
20260506222232 7 168 0.0 0.0 0.00 0.00 0.00 86 1011.5
20260506221249 7 168 0.0 0.0 0.00 0.00 0.00 86 1011.5
20260506220244 8 168 0.0 0.0 0.00 0.00 0.00 86 1011.4
20260506215237 8 168 0.0 0.0 0.00 0.00 0.00 86 1011.4
20260506214235 8 168 0.0 0.0 0.00 0.00 0.00 85 1011.4
20260506213235 8 168 0.0 0.0 0.00 0.00 0.00 85 1011.4
20260506212310 8 168 0.0 0.0 0.00 0.00 0.00 85 1011.4
20260506211241 8 168 0.0 0.0 0.00 0.00 0.00 85 1011.4
20260506210233 8 168 0.0 0.0 0.00 0.00 0.00 85 1011.4
20260506205242 9 168 0.0 0.0 0.00 0.00 0.00 84 1011.4
20260506204233 9 168 0.0 0.0 0.00 0.00 0.00 84 1011.3
20260506203234 10 168 0.0 0.0 0.00 0.00 0.00 84 1011.2
20260506202312 10 168 0.0 0.0 0.00 0.00 0.00 85 1011.2
20260506201245 10 168 0.0 0.0 0.00 0.00 0.00 85 1011.1